This is the latest recevied weather packets stored in our database for station/object KC1TEM-13. If no packets are shown the sender has not sent any weather packets the latest 10 day(s).
| Time | Temp. | Humidity | Pressure | Rain* | Wind** | Luminosity | Snow |
|---|---|---|---|---|---|---|---|
| 1777477584 | 10° C | 77% | 1016.9 hPa | 0 mm | - | 347 W/m² | - |
| 1777477281 | 10° C | 79% | 1017 hPa | 0 mm | - | 313 W/m² | - |
| 1777476977 | 10° C | 79% | 1017.4 hPa | 0 mm | - | 305 W/m² | - |
| 1777476676 | 9.44° C | 79% | 1017.5 hPa | 0 mm | - | 288 W/m² | - |
| 1777476372 | 9.44° C | 80% | 1017.7 hPa | 0 mm | - | 365 W/m² | - |
| 1777476069 | 9.44° C | 80% | 1017.7 hPa | 0 mm | - | 231 W/m² | - |
| 1777475763 | 9.44° C | 81% | 1017.9 hPa | 0 mm | - | 394 W/m² | - |
| 1777475461 | 9.44° C | 82% | 1017.8 hPa | 0 mm | - | 306 W/m² | - |
| 1777475155 | 8.89° C | 86% | 1018.1 hPa | 0 mm | - | 403 W/m² | - |
| 1777474852 | 8.33° C | 88% | 1018.1 hPa | 0 mm | - | 339 W/m² | - |
| 1777474548 | 8.33° C | 86% | 1018.3 hPa | 0 mm | - | 206 W/m² | - |
| 1777474245 | 8.33° C | 88% | 1018.3 hPa | 0 mm | - | 268 W/m² | - |
| 1777473942 | 8.33° C | 88% | 1018.5 hPa | 0 mm | - | 257 W/m² | - |
| 1777473640 | 8.33° C | 89% | 1018.6 hPa | 0 mm | - | 226 W/m² | - |
| 1777473336 | 8.33° C | 89% | 1018.6 hPa | 0 mm | - | 157 W/m² | - |
| 1777473032 | 8.33° C | 89% | 1018.9 hPa | 0 mm | - | 210 W/m² | - |
| 1777472728 | 7.78° C | 90% | 1018.9 hPa | 0 mm | - | 219 W/m² | - |
| 1777472425 | 7.78° C | 90% | 1019 hPa | 0 mm | - | 198 W/m² | - |
| 1777472123 | 7.78° C | 92% | 1018.9 hPa | 0 mm | - | 200 W/m² | - |
| 1777471822 | 7.78° C | 92% | 1018.9 hPa | 0 mm | - | 202 W/m² | - |
| 1777471520 | 7.78° C | 92% | 1018.8 hPa | 0 mm | - | 148 W/m² | - |
| 1777471216 | 7.78° C | 92% | 1018.5 hPa | 0 mm | - | 129 W/m² | - |
| 1777470913 | 7.78° C | 92% | 1018.8 hPa | 0 mm | - | 143 W/m² | - |
| 1777470610 | 7.78° C | 91% | 1018.8 hPa | 0 mm | - | 127 W/m² | - |
| 1777470306 | 7.78° C | 90% | 1018.8 hPa | 0 mm | - | 133 W/m² | - |
* Rain latest hour (hover to see other rain measurements)
** Current wind speed in m/s (hover to see current wind gust speed)